Location: Duffs
(47.4500°N, 53.1167°W)
Time: 09:55:51
(UTC+00:00)

ISS - Pass Details

Date: 25 May 2022
Orbit: 414 x 420 km, 51.6° (Epoch: 01 July)

Event Time Altitude Azimuth Distance (km) Brightness Sun altitude
Rises 01:00:33 0° 293° (WNW) 2,371 1.1 -13.9°
Reaches altitude 10° 01:02:40 10° 296° (WNW) 1,503 0.0 -14.1°
Maximum altitude 01:06:02 67° 20° (NNE) 458 -3.5 -14.4°
Enters shadow 01:08:06 21° 99° (E) 992 -2.3 -14.6°
